Location: Berlin
(52.5200°N, 13.4050°E)
Time: 07:25:14
(UTC+01:00)

ISS - Pass Details

Date: 26 February 2019
Orbit: 406 x 411 km, 51.6° (Epoch: 23 March)

Event Time Altitude Azimuth Distance (km) Brightness Sun altitude
Exits shadow 05:34:03 - 201° (SSW) 1,820 -0.8 -13.9°
Reaches altitude 10° 05:35:10 10° 190° (S) 1,461 -1.1 -13.7°
Maximum altitude 05:37:29 18° 145° (SE) 1,075 -1.3 -13.4°
Drops below altitude 10° 05:39:49 10° 100° (E) 1,469 0.4 -13.0°
Sets 05:42:20 0° 80° (E) 2,334 2.0 -12.6°
